BER6881 EDXW-EDDL

Flight info

Callsign BER6881
Flight time 0h 50m
Altitude 34000
Route OLDIP1B OLDIP DCT BADOS DCT OMWEG Y348 ELSOB DCT KEGAB DCT DENOL T851 HALME HALME1A
Aircraft A319/M-SDE2E3FGHIRWXYZ/L

Departure

Time 2026-05-04 17:42
Airport Westerland Sylt Airport (EDXW)

Arrival

Time 2026-05-04 18:33
Airport Düsseldorf Airport (EDDL)
Time Latitude Longitude Altitude Speed Heading
2026-05-04 17:07 54.91351 8.33117 29 ft 0 kts 269°
2026-05-04 17:30 54.91352 8.33233 29 ft 4 kts 237°
2026-05-04 17:31 54.91382 8.33250 29 ft 0 kts 180°
2026-05-04 17:34 54.91302 8.33209 29 ft 7 kts 208°
2026-05-04 17:34 54.91262 8.33182 30 ft 5 kts 191°
2026-05-04 17:35 54.91133 8.33176 35 ft 9 kts 179°
2026-05-04 17:35 54.90968 8.33109 34 ft 10 kts 201°
2026-05-04 17:35 54.90908 8.33149 35 ft 9 kts 148°
2026-05-04 17:36 54.90848 8.33198 35 ft 10 kts 160°
2026-05-04 17:36 54.90778 8.33220 35 ft 11 kts 175°
2026-05-04 17:36 54.90701 8.33228 35 ft 12 kts 176°
2026-05-04 17:36 54.90619 8.33237 35 ft 12 kts 175°
2026-05-04 17:37 54.90529 8.33256 34 ft 14 kts 168°
2026-05-04 17:37 54.90437 8.33316 34 ft 15 kts 152°
2026-05-04 17:37 54.90352 8.33427 33 ft 16 kts 135°
2026-05-04 17:37 54.90289 8.33589 33 ft 17 kts 116°
2026-05-04 17:38 54.90256 8.33782 31 ft 17 kts 99°
2026-05-04 17:38 54.90239 8.33986 33 ft 18 kts 98°
2026-05-04 17:38 54.90242 8.34200 31 ft 18 kts 81°
2026-05-04 17:38 54.90263 8.34413 35 ft 18 kts 80°
2026-05-04 17:39 54.90307 8.34837 36 ft 14 kts 81°
2026-05-04 17:39 54.90322 8.34986 35 ft 10 kts 79°
2026-05-04 17:39 54.90344 8.35087 36 ft 7 kts 55°
2026-05-04 17:40 54.90374 8.35158 37 ft 7 kts 53°
2026-05-04 17:40 54.90398 8.35188 37 ft 2 kts
2026-05-04 17:40 54.90415 8.35175 34 ft 3 kts 325°
2026-05-04 17:40 54.90423 8.35164 36 ft 0 kts 323°
2026-05-04 17:41 54.90425 8.35162 36 ft 2 kts 323°
2026-05-04 17:41 54.90525 8.35034 37 ft 52 kts 324°
2026-05-04 17:41 54.91022 8.34419 37 ft 123 kts 324°
2026-05-04 17:42 54.91782 8.33495 539 ft 131 kts 324°
2026-05-04 17:42 54.92536 8.32563 1229 ft 134 kts 323°
2026-05-04 17:42 54.93360 8.31527 1625 ft 159 kts 323°
2026-05-04 17:42 54.94293 8.30370 2137 ft 175 kts 323°
2026-05-04 17:43 54.95333 8.29062 2635 ft 191 kts 322°
2026-05-04 17:43 54.96427 8.27673 3319 ft 197 kts 321°
2026-05-04 17:43 54.97548 8.26272 4044 ft 200 kts 322°
2026-05-04 17:43 54.98554 8.24679 4884 ft 194 kts 301°
2026-05-04 17:44 54.98902 8.22376 5321 ft 210 kts 266°
2026-05-04 17:44 54.98318 8.19967 5833 ft 227 kts 234°
2026-05-04 17:44 54.97324 8.17895 6891 ft 216 kts 232°
2026-05-04 17:44 54.96347 8.15915 7771 ft 217 kts 230°
2026-05-04 17:45 54.95304 8.13982 8553 ft 221 kts 227°
2026-05-04 17:45 54.94094 8.12387 9527 ft 217 kts 208°
2026-05-04 17:45 54.92609 8.12001 10375 ft 226 kts 175°
2026-05-04 17:45 54.91084 8.13316 10426 ft 272 kts 142°
2026-05-04 17:46 54.89706 8.15727 10842 ft 293 kts 137°
2026-05-04 17:46 54.88262 8.18349 11418 ft 307 kts 137°
2026-05-04 17:46 54.86727 8.20948 12279 ft 309 kts 141°
2026-05-04 17:46 54.85072 8.23423 12910 ft 321 kts 146°
2026-05-04 17:47 54.83250 8.25789 13439 ft 335 kts 147°
2026-05-04 17:47 54.81319 8.28212 13915 ft 351 kts 148°
2026-05-04 17:47 54.79288 8.30719 14348 ft 364 kts 148°
2026-05-04 17:47 54.77160 8.33163 14972 ft 368 kts 152°
2026-05-04 17:48 54.74954 8.35434 15755 ft 369 kts 153°
2026-05-04 17:48 54.72730 8.37693 16463 ft 373 kts 153°
2026-05-04 17:48 54.70508 8.40028 17174 ft 376 kts 151°
2026-05-04 17:48 54.68282 8.42474 17883 ft 380 kts 150°
2026-05-04 17:49 54.66062 8.45004 18540 ft 384 kts 149°
2026-05-04 17:49 54.63833 8.47596 19139 ft 388 kts 149°
2026-05-04 17:49 54.61589 8.50223 19752 ft 391 kts 149°
2026-05-04 17:49 54.59325 8.52867 20364 ft 395 kts 149°
2026-05-04 17:50 54.57070 8.55485 20971 ft 398 kts 150°
2026-05-04 17:50 54.54763 8.58149 21577 ft 401 kts 150°
2026-05-04 17:50 54.52432 8.60824 22177 ft 404 kts 150°
2026-05-04 17:50 54.50075 8.63516 22737 ft 409 kts 151°
2026-05-04 17:51 54.47692 8.66233 23287 ft 413 kts 152°
2026-05-04 17:51 54.45288 8.68976 23797 ft 417 kts 152°
2026-05-04 17:51 54.43684 8.70808 24088 ft 419 kts 152°
2026-05-04 17:51 54.41240 8.73597 24505 ft 423 kts 153°
2026-05-04 17:52 54.38786 8.76394 24968 ft 426 kts 153°
2026-05-04 17:52 54.36313 8.79209 25439 ft 428 kts 153°
2026-05-04 17:52 54.33829 8.82034 25916 ft 429 kts 153°
2026-05-04 17:52 54.31329 8.84870 26383 ft 431 kts 154°
2026-05-04 17:53 54.28821 8.87702 26859 ft 433 kts 154°
2026-05-04 17:53 54.26303 8.90544 27326 ft 434 kts 154°
2026-05-04 17:53 54.23780 8.93391 27797 ft 436 kts 154°
2026-05-04 17:53 54.21241 8.96253 28256 ft 438 kts 155°
2026-05-04 17:54 54.18688 8.99118 28705 ft 440 kts 155°
2026-05-04 17:54 54.16123 9.01997 29154 ft 442 kts 155°
2026-05-04 17:54 54.13554 9.04882 29603 ft 442 kts 154°
2026-05-04 17:54 54.10984 9.07768 30067 ft 443 kts 154°
2026-05-04 17:55 54.08405 9.10656 30414 ft 445 kts 154°
2026-05-04 17:55 54.05799 9.13572 30718 ft 448 kts 154°
2026-05-04 17:55 54.03192 9.16482 31009 ft 451 kts 154°
2026-05-04 17:55 54.00559 9.19410 31291 ft 454 kts 154°
2026-05-04 17:56 53.97906 9.22351 31571 ft 457 kts 154°
2026-05-04 17:56 53.95273 9.25264 31908 ft 458 kts 154°
2026-05-04 17:56 53.92568 9.28262 32302 ft 458 kts 154°
2026-05-04 17:56 53.89930 9.31176 32682 ft 459 kts 154°
2026-05-04 17:57 53.87249 9.34117 33055 ft 459 kts 154°
2026-05-04 17:57 53.84562 9.37049 33409 ft 460 kts 154°
2026-05-04 17:57 53.81868 9.39976 33688 ft 460 kts 154°
2026-05-04 17:57 53.79168 9.42901 33930 ft 461 kts 154°
2026-05-04 17:58 53.73828 9.48695 33993 ft 451 kts 154°
2026-05-04 17:58 53.68474 9.54059 33994 ft 439 kts 165°
2026-05-04 17:59 53.65586 9.55424 33997 ft 425 kts 179°
2026-05-04 17:59 53.62689 9.55543 33997 ft 412 kts 193°
2026-05-04 17:59 53.57298 9.53030 33997 ft 398 kts 204°
2026-05-04 18:00 53.54673 9.51553 33994 ft 396 kts 204°
2026-05-04 18:00 53.49490 9.48619 33994 ft 396 kts 204°
2026-05-04 18:01 53.44268 9.45686 33993 ft 396 kts 204°
2026-05-04 18:01 53.39045 9.42776 33981 ft 395 kts 204°
2026-05-04 18:02 53.31218 9.38428 33981 ft 394 kts 204°
2026-05-04 18:02 53.26029 9.35562 33985 ft 393 kts 204°
2026-05-04 18:03 53.20843 9.32694 33983 ft 392 kts 204°
2026-05-04 18:03 53.15695 9.29864 33975 ft 391 kts 204°
2026-05-04 18:04 53.10529 9.27025 33973 ft 391 kts 204°
2026-05-04 18:05 53.02774 9.22787 33965 ft 391 kts 204°
2026-05-04 18:05 52.97601 9.19961 33959 ft 391 kts 204°
2026-05-04 18:06 52.89853 9.15750 33938 ft 391 kts 204°
2026-05-04 18:06 52.84686 9.12961 33946 ft 390 kts 203°
2026-05-04 18:07 52.79519 9.10176 33945 ft 390 kts 203°
2026-05-04 18:07 52.74371 9.07392 33975 ft 389 kts 203°
2026-05-04 18:08 52.69222 9.04634 33968 ft 389 kts 203°
2026-05-04 18:08 52.64110 9.01898 33940 ft 388 kts 202°
2026-05-04 18:09 52.53840 8.96424 33944 ft 388 kts 202°
2026-05-04 18:10 52.51259 8.95052 33678 ft 389 kts 202°
2026-05-04 18:10 52.48690 8.93689 33405 ft 389 kts 202°
2026-05-04 18:10 52.46113 8.92324 33128 ft 390 kts 202°
2026-05-04 18:10 52.43531 8.90955 32857 ft 390 kts 202°
2026-05-04 18:11 52.40938 8.89582 32591 ft 391 kts 202°
2026-05-04 18:11 52.38350 8.88210 32325 ft 392 kts 202°
2026-05-04 18:11 52.35749 8.86834 32057 ft 393 kts 201°
2026-05-04 18:11 52.33163 8.85474 31610 ft 388 kts 201°
2026-05-04 18:12 52.30603 8.84134 31098 ft 383 kts 201°
2026-05-04 18:12 52.28078 8.82805 30618 ft 378 kts 202°
2026-05-04 18:12 52.25798 8.80925 30505 ft 360 kts 218°
2026-05-04 18:12 52.24011 8.78096 30438 ft 370 kts 234°
2026-05-04 18:13 52.21436 8.70710 30294 ft 377 kts 241°
2026-05-04 18:13 52.18969 8.63149 30128 ft 378 kts 241°
2026-05-04 18:14 52.17734 8.59363 30053 ft 378 kts 241°
2026-05-04 18:14 52.15250 8.51816 29887 ft 378 kts 241°
2026-05-04 18:15 52.12759 8.44300 29455 ft 376 kts 241°
2026-05-04 18:15 52.10289 8.36848 28887 ft 370 kts 240°
2026-05-04 18:15 52.09069 8.33185 28403 ft 365 kts 240°
2026-05-04 18:16 52.07871 8.29581 27937 ft 360 kts 240°
2026-05-04 18:16 52.06685 8.26022 27490 ft 356 kts 240°
2026-05-04 18:16 52.05512 8.22504 27052 ft 352 kts 240°
2026-05-04 18:17 52.03204 8.15601 26186 ft 347 kts 240°
2026-05-04 18:17 52.02060 8.12177 25768 ft 343 kts 240°
2026-05-04 18:17 51.99797 8.05448 24974 ft 336 kts 239°
2026-05-04 18:18 51.98671 8.02122 24585 ft 345 kts 239°
2026-05-04 18:18 51.97458 7.98547 24154 ft 378 kts 239°
2026-05-04 18:18 51.96161 7.94733 23702 ft 392 kts 239°
2026-05-04 18:18 51.94844 7.90845 23167 ft 394 kts 240°
2026-05-04 18:19 51.92215 7.83074 22206 ft 392 kts 240°
2026-05-04 18:19 51.90908 7.79212 21729 ft 390 kts 239°
2026-05-04 18:19 51.89601 7.75370 21233 ft 389 kts 239°
2026-05-04 18:20 51.88297 7.71548 20743 ft 387 kts 239°
2026-05-04 18:20 51.86998 7.67748 20229 ft 385 kts 239°
2026-05-04 18:20 51.85704 7.63960 19740 ft 383 kts 239°
2026-05-04 18:20 51.84417 7.60211 19254 ft 381 kts 239°
2026-05-04 18:21 51.83129 7.56464 18764 ft 380 kts 239°
2026-05-04 18:21 51.81854 7.52758 18381 ft 374 kts 239°
2026-05-04 18:21 51.80613 7.49144 18229 ft 360 kts 239°
2026-05-04 18:21 51.79415 7.45656 17895 ft 351 kts 239°
2026-05-04 18:22 51.78235 7.42228 17413 ft 348 kts 239°
2026-05-04 18:22 51.77063 7.38828 16914 ft 345 kts 239°
2026-05-04 18:22 51.75644 7.35775 16326 ft 337 kts 221°
2026-05-04 18:22 51.73694 7.33762 15550 ft 332 kts 205°
2026-05-04 18:23 51.71596 7.32214 14744 ft 331 kts 204°
2026-05-04 18:23 51.69498 7.30708 13977 ft 328 kts 204°
2026-05-04 18:23 51.67470 7.29259 13653 ft 313 kts 204°
2026-05-04 18:23 51.65537 7.27879 13377 ft 297 kts 204°
2026-05-04 18:24 51.63664 7.26543 12831 ft 291 kts 204°
2026-05-04 18:24 51.61824 7.25236 12243 ft 288 kts 203°
2026-05-04 18:24 51.59984 7.23920 11549 ft 290 kts 204°
2026-05-04 18:24 51.58146 7.22601 10957 ft 288 kts 203°
2026-05-04 18:25 51.56318 7.21360 10412 ft 283 kts 196°
2026-05-04 18:25 51.54378 7.21111 9920 ft 280 kts 176°
2026-05-04 18:25 51.52433 7.21412 9365 ft 279 kts 174°
2026-05-04 18:25 51.50523 7.21763 8853 ft 276 kts 173°
2026-05-04 18:26 51.48624 7.22126 8418 ft 272 kts 174°
2026-05-04 18:26 51.46746 7.22530 8154 ft 272 kts 173°
2026-05-04 18:26 51.44876 7.22951 7997 ft 271 kts 173°
2026-05-04 18:26 51.43013 7.22920 7978 ft 268 kts 195°
2026-05-04 18:27 51.41376 7.21611 7619 ft 262 kts 221°
2026-05-04 18:27 51.40339 7.19263 7036 ft 262 kts 249°
2026-05-04 18:27 51.39994 7.16383 6366 ft 266 kts 262°
2026-05-04 18:27 51.39831 7.13439 5726 ft 265 kts 263°
2026-05-04 18:28 51.39683 7.10509 5139 ft 262 kts 263°
2026-05-04 18:28 51.39541 7.07603 4550 ft 260 kts 263°
2026-05-04 18:28 51.39397 7.04732 3941 ft 259 kts 263°
2026-05-04 18:28 51.39249 7.01867 3404 ft 255 kts 263°
2026-05-04 18:29 51.39104 6.99127 3224 ft 238 kts 263°
2026-05-04 18:29 51.38659 6.96723 3097 ft 216 kts 239°
2026-05-04 18:29 51.37814 6.94799 3006 ft 209 kts 231°
2026-05-04 18:29 51.36933 6.92924 2610 ft 213 kts 232°
2026-05-04 18:30 51.35231 6.89318 1982 ft 190 kts 231°
2026-05-04 18:30 51.34466 6.87702 1772 ft 177 kts 231°
2026-05-04 18:30 51.33744 6.86179 1505 ft 162 kts 229°
2026-05-04 18:31 51.33101 6.84822 1301 ft 149 kts 228°
2026-05-04 18:31 51.32491 6.83538 1091 ft 140 kts 229°
2026-05-04 18:31 51.31911 6.82316 901 ft 136 kts 231°
2026-05-04 18:31 51.31343 6.81122 718 ft 134 kts 229°
2026-05-04 18:32 51.30780 6.79939 540 ft 133 kts 231°
2026-05-04 18:32 51.30222 6.78767 364 ft 134 kts 231°
2026-05-04 18:32 51.29658 6.77581 159 ft 135 kts 229°
2026-05-04 18:32 51.29149 6.76520 134 ft 88 kts 236°
2026-05-04 18:33 51.28914 6.76005 132 ft 47 kts 232°
2026-05-04 18:33 51.28760 6.75763 128 ft 26 kts 213°
2026-05-04 18:33 51.28634 6.75678 125 ft 17 kts 184°
2026-05-04 18:33 51.28516 6.75717 122 ft 18 kts 153°
2026-05-04 18:34 51.28450 6.75789 124 ft 4 kts 142°
2026-05-04 18:34 51.28449 6.75791 123 ft 0 kts 142°
2026-05-04 18:35 51.28447 6.75793 125 ft 2 kts 142°
2026-05-04 18:35 51.28414 6.75834 127 ft 10 kts 142°
2026-05-04 18:35 51.28346 6.75918 128 ft 13 kts 142°
2026-05-04 18:35 51.28275 6.76001 127 ft 13 kts 145°
2026-05-04 18:36 51.28215 6.76063 127 ft 3 kts 148°
2026-05-04 18:37 51.28214 6.76064 127 ft 1 kts 148°
2026-05-04 18:37 51.28192 6.76107 125 ft 8 kts 111°
2026-05-04 18:38 51.28203 6.76197 126 ft 8 kts 86°
2026-05-04 18:38 51.28171 6.76275 128 ft 8 kts 141°
2026-05-04 18:38 51.28140 6.76327 131 ft 5 kts 120°
2026-05-04 18:38 51.28124 6.76372 128 ft 4 kts 121°
2026-05-04 18:39 51.28103 6.76393 131 ft 3 kts 172°
2026-05-04 18:39 51.28080 6.76387 131 ft 4 kts 197°
2026-05-04 18:39 51.28063 6.76378 131 ft 3 kts 197°
2026-05-04 18:39 51.28041 6.76367 127 ft 2 kts 197°
2026-05-04 18:40 51.28039 6.76366 127 ft 0 kts 197°